Regional Weather Roundup
Issued by NWS Albany, NY

Home | Current Version | Previous Version | Text Only | Print | Product List | Glossary On
Versions: 1 2 3 4 5 6 7 8 9 10 11 12 13 14 15 16 17 18 19 20 21 22 23 24 25 26 27
000
ASUS41 KALY 191110
RWRALY

NEW YORK STATE HOURLY WEATHER ROUNDUP
NATIONAL WEATHER SERVICE ALBANY NY
700 AM EDT THU OCT 19 2017

NOTE: "FAIR" INDICATES FEW OR NO CLOUDS BELOW 12,000 FEET WITH NO
SIGNIFICANT WEATHER AND/OR NO OBSTRUCTIONS TO VISIBILITY.

NYZ032-033-038>043-046>054-057>066-NYZ062>081-082-084-191200-
EAST


CITY           SKY/WX    TMP DP  RH WIND       PRES   REMARKS
ALBANY         PTCLDY    49  45  86 S7        30.19F
GLENS FALLS    CLEAR     36  33  89 NW3       30.17F
POUGHKEEPSIE   CLEAR     40  39  97 CALM      30.23S
NEWBURGH       CLEAR     46  46 100 CALM      30.25S
MONTGOMERY     CLEAR     40  39  97 CALM      30.22F FOG
WHITE PLAINS   CLEAR     48  44  86 CALM      30.24S
ISLIP          PTCLDY    52  50  93 SW3       30.25F
NEW YORK CITY  PTCLDY    59  46  62 SW7       30.24F
CENTRAL PARK   PTCLDY    56  46  69 W3        30.27F
$$

NYZ005>009-017-018-044>046-055-056-191200-
CENTRAL


CITY           SKY/WX    TMP DP  RH WIND       PRES   REMARKS
FULTON           N/A    N/A N/A N/A MISG      30.10F
SYRACUSE       CLEAR     51  42  71 SE6       30.12S
ROME           CLEAR     49  43  80 E9        30.16F
ELMIRA         PTCLDY    37  36  96 CALM      30.17S
BINGHAMTON     CLEAR     49  39  68 S8        30.17F
MONTICELLO     CLEAR     39  39 100 CALM      30.24F
$$

NYZ026>034-041>043-087-191200-
NORTH


CITY           SKY/WX    TMP DP  RH WIND       PRES   REMARKS
WATERTOWN      CLEAR     56  44  64 S7        30.06F
FORT DRUM      NOT AVBL
OGDENSBURG     FAIR      53  45  74 S8        30.03F
MASSENA        CLEAR     56  45  66 SW12      30.03F
SARANAC LAKE   CLEAR     47  42  83 W7        30.08F
PLATTSBURGH    CLEAR     39  38  96 CALM      30.08F
$$

NYZ001>004-010>016-019>021-085-191200-
WEST


CITY           SKY/WX    TMP DP  RH WIND       PRES   REMARKS
NIAGARA FALLS  CLEAR     58  47  66 SW10      30.05F
BUFFALO        PTCLDY    54  42  64 SW12      30.06F
DUNKIRK        CLEAR     54  42  64 S14       30.09F
JAMESTOWN      CLEAR     44  38  79 S8        30.14F
WELLSVILLE     CLEAR     51  37  58 SW7       30.16F
ROCHESTER      PTCLDY    54  42  64 SW14      30.09S
PENN YAN       CLEAR     51  39  63 SW8       30.12F
$$

             KEY
       WCI = WIND CHILL INDEX
       VSB = VISIBILITY
       HX  = HEAT INDEX
$$




USA.gov is the U.S. government's official web portal to all federal, state and local government web resources and services.